CW8386 Weather Reports


Display with metric or nautical units.
time (UTC)temp
F
wind
direction
speed
MPH
gust
MPH
rain 1hr
in
rain 24hr
in
rain mn
in
humidity
%
barometer
mb
20260902095549 56 360 0.0 1.0 0.00 0.00 0.00 55 1014.2
20260902095029 56 360 0.0 3.0 0.00 0.00 0.00 56 1014.1
20260902094531 56 360 0.0 3.0 0.00 0.00 0.00 56 1014.9
20260902094032 56 360 0.0 0.0 0.00 0.00 0.00 56 1014.8
20260902093613 56 360 0.0 0.0 0.00 0.00 0.00 55 1014.8
20260902093114 56 360 0.0 2.0 0.00 0.00 0.00 54 1014.8
20260902092533 57 360 0.0 4.0 0.00 0.00 0.00 56 1014.8
20260902092055 56 360 3.0 4.0 0.00 0.00 0.00 55 1014.8
20260902091556 56 360 2.0 4.0 0.00 0.00 0.00 55 1014.7
20260902091037 55 360 2.0 4.0 0.00 0.00 0.00 55 1014.6
20260902090536 56 360 3.0 4.0 0.00 0.00 0.00 54 1014.6
20260902085536 57 360 0.0 2.0 0.00 0.00 0.00 53 1014.6
20260902085058 57 360 0.0 0.0 0.00 0.00 0.00 53 1014.6
20260902084538 58 360 0.0 0.0 0.00 0.00 0.00 52 1014.7
20260902084040 58 360 0.0 0.0 0.00 0.00 0.00 51 1014.6
20260902083540 58 360 0.0 0.0 0.00 0.00 0.00 52 1014.6
20260902083042 58 360 0.0 0.0 0.00 0.00 0.00 52 1014.5
20260902082527 58 360 0.0 4.0 0.00 0.00 0.00 52 1014.5
20260902082028 57 360 0.0 4.0 0.00 0.00 0.00 52 1014.5
20260902081529 57 360 0.0 3.0 0.00 0.00 0.00 53 1014.5
20260902081032 57 360 1.0 5.0 0.00 0.00 0.00 53 1014.5
20260902080552 57 360 4.0 5.0 0.00 0.00 0.00 52 1014.5
20260902080034 58 360 0.0 0.0 0.00 0.00 0.00 52 1014.5
20260902075536 58 360 0.0 0.0 0.00 0.00 0.00 51 1014.5
20260902075036 58 360 0.0 0.0 0.00 0.00 0.00 52 1014.4
20260902074538 58 360 0.0 2.0 0.00 0.00 0.00 52 1014.4
20260902074100 59 360 1.0 2.0 0.00 0.00 0.00 51 1014.5
20260902073620 59 360 2.0 2.0 0.00 0.00 0.00 50 1014.5
20260902073039 60 360 0.0 0.0 0.00 0.00 0.00 50 1014.4
20260902072540 59 360 0.0 2.0 0.00 0.00 0.00 51 1014.4
20260902072101 59 360 0.0 5.0 0.00 0.00 0.00 51 1014.5
20260902071542 58 360 0.0 6.0 0.00 0.00 0.00 52 1014.6
20260902071045 58 360 5.0 6.0 0.00 0.00 0.00 51 1014.5
20260902070545 59 360 3.0 5.0 0.00 0.00 0.00 51 1014.4
20260902070106 60 360 3.0 4.0 0.00 0.00 0.00 50 1014.4
20260902065526 61 360 1.0 5.0 0.00 0.00 0.00 49 1014.4
20260902065026 61 360 3.0 5.0 0.00 0.00 0.00 48 1014.4
20260902064548 61 360 0.0 1.0 0.00 0.00 0.00 48 1014.4
20260902064030 62 360 0.0 4.0 0.00 0.00 0.00 48 1014.4
20260902063551 62 360 0.0 5.0 0.00 0.00 0.00 48 1014.4
20260902063112 62 360 4.0 5.0 0.00 0.00 0.00 48 1014.4
20260902062532 63 360 0.0 2.0 0.00 0.00 0.00 47 1014.4
20260902062038 63 360 0.0 0.0 0.00 0.00 0.00 47 1014.3
20260902061058 63 360 0.0 0.0 0.00 0.00 0.00 47 1014.4
20260902060538 64 360 0.0 2.0 0.00 0.00 0.00 47 1014.4
20260902060100 64 360 0.0 2.0 0.00 0.00 0.00 47 1014.4
20260902055546 64 360 0.0 3.0 0.00 0.00 0.00 47 1014.4
20260902055027 64 360 1.0 3.0 0.00 0.00 0.00 47 1014.3
20260902054549 65 360 0.0 4.0 0.00 0.00 0.00 47 1014.3
20260902054030 65 360 3.0 4.0 0.00 0.00 0.00 46 1014.2
20260902053529 66 360 1.0 2.0 0.00 0.00 0.00 46 1014.1
20260902053030 66 360 0.0 1.0 0.00 0.00 0.00 45 1014.1
20260902052533 67 360 0.0 2.0 0.00 0.00 0.00 45 1014.1
20260902052115 67 360 0.0 2.0 0.00 0.00 0.00 45 1014.1
20260902051555 66 360 0.0 4.0 0.00 0.00 0.00 45 1014.2
20260902051036 66 360 1.0 7.0 0.00 0.00 0.00 45 1014.2
20260902050617 64 360 2.0 7.0 0.00 0.00 0.00 47 1014.2
20260902050056 63 360 4.0 6.0 0.00 0.00 0.00 48 1014.1
20260902045536 63 360 3.0 4.0 0.00 0.00 0.00 48 1014.0
20260902044617 63 360 5.0 7.0 0.00 0.00 0.00 48 1013.9
20260902044037 64 360 4.0 5.0 0.00 0.00 0.00 47 1014.0
20260902043558 64 360 1.0 4.0 0.00 0.00 0.00 47 1014.0
20260902043037 65 360 3.0 3.0 0.00 0.00 0.00 46 1014.0
20260902042118 65 360 1.0 5.0 0.00 0.00 0.00 46 1014.1
20260902041557 66 360 4.0 5.0 0.00 0.00 0.00 45 1014.1
20260902041118 66 360 0.0 2.0 0.00 0.00 0.00 45 1014.0
20260902040613 67 360 2.0 3.0 0.00 0.00 0.00 45 1014.0
20260902040052 67 360 1.0 2.0 0.00 0.00 0.00 44 1014.1
20260902035033 67 360 1.0 4.0 0.00 0.00 0.00 44 1013.7
20260902034614 68 360 3.0 4.0 0.00 0.00 0.00 43 1013.8
20260902034055 68 360 2.0 7.0 0.00 0.00 0.00 43 1013.7
20260902033615 68 360 2.0 7.0 0.00 0.00 0.00 43 1013.7
20260902033055 68 360 5.0 6.0 0.00 0.00 0.00 43 1013.7
20260902032556 69 360 2.0 3.0 0.00 0.00 0.00 42 1013.6
20260902032036 69 360 2.0 5.0 0.00 0.00 0.00 42 1013.5
20260902031539 69 360 3.0 5.0 0.00 0.00 0.00 42 1013.4
20260902031025 70 360 3.0 4.0 0.00 0.00 0.00 41 1013.3
20260902030525 70 360 2.0 5.0 0.00 0.00 0.00 41 1013.3
20260902030106 72 360 4.0 5.0 0.00 0.00 0.00 39 1013.3
20260902025527 73 360 1.0 4.0 0.00 0.00 0.00 38 1013.2
20260902024544 74 360 3.0 5.0 0.00 0.00 0.00 37 1013.0
20260902024029 74 360 0.0 5.0 0.00 0.00 0.00 38 1012.8
20260902023529 73 360 2.0 7.0 0.00 0.00 0.00 38 1012.8
20260902023030 74 360 2.0 9.0 0.00 0.00 0.00 38 1012.7
20260902022531 75 360 2.0 9.0 0.00 0.00 0.00 36 1012.6
20260902022114 76 360 5.0 6.0 0.00 0.00 0.00 36 1012.5
20260902021553 77 360 3.0 6.0 0.00 0.00 0.00 35 1012.3
20260902020532 78 360 3.0 10.0 0.00 0.00 0.00 34 1012.2
20260902020053 79 360 5.0 10.0 0.00 0.00 0.00 34 1012.2
20260902015614 79 360 4.0 7.0 0.00 0.00 0.00 34 1012.2
20260902015033 79 360 4.0 9.0 0.00 0.00 0.00 33 1012.1
20260902014534 80 360 3.0 14.0 0.00 0.00 0.00 33 1012.1
20260902014035 80 360 9.0 14.0 0.00 0.00 0.00 33 1012.0
20260902013536 80 360 4.0 11.0 0.00 0.00 0.00 33 1012.0
20260902013039 81 360 7.0 12.0 0.00 0.00 0.00 33 1011.9
20260902012536 82 360 5.0 12.0 0.00 0.00 0.00 32 1011.8
20260902011557 82 360 4.0 13.0 0.00 0.00 0.00 29 1011.8
20260902011058 82 360 2.0 13.0 0.00 0.00 0.00 29 1011.9
20260902010557 82 360 1.0 12.0 0.00 0.00 0.00 29 1011.8
20260902010057 82 360 2.0 6.0 0.00 0.00 0.00 30 1011.7
20260902005537 82 360 1.0 14.0 0.00 0.00 0.00 30 1011.7
20260902005059 82 360 2.0 14.0 0.00 0.00 0.00 29 1011.7
20260902004600 82 360 3.0 13.0 0.00 0.00 0.00 29 1011.7
20260902004122 83 360 5.0 11.0 0.00 0.00 0.00 29 1011.6
20260902003601 83 360 0.0 12.0 0.00 0.00 0.00 29 1011.6
20260902003123 83 360 2.0 12.0 0.00 0.00 0.00 29 1011.6
20260902002602 83 360 5.0 11.0 0.00 0.00 0.00 29 1012.4
20260902002102 83 360 2.0 15.0 0.00 0.00 0.00 30 1012.4
20260902001523 83 360 0.0 12.0 0.00 0.00 0.00 30 1012.3
20260902000103 82 360 2.0 21.0 0.00 0.00 0.00 29 1012.4
20260901235620 83 360 2.0 21.0 0.00 0.00 0.00 28 1012.4
20260901235024 83 360 5.0 18.0 0.00 0.00 0.00 29 1012.4
20260901234606 83 360 2.0 14.0 0.00 0.00 0.00 29 1012.4
20260901234026 83 360 7.0 21.0 0.00 0.00 0.00 29 1012.4
20260901233526 83 360 13.0 22.0 0.00 0.00 0.00 30 1012.4
20260901233047 83 360 11.0 22.0 0.00 0.00 0.00 30 1012.4
20260901232528 83 360 11.0 20.0 0.00 0.00 0.00 30 1012.4
20260901232110 83 360 10.0 23.0 0.00 0.00 0.00 30 1012.4
20260901231550 83 360 9.0 23.0 0.00 0.00 0.00 29 1012.4
20260901231111 83 360 4.0 18.0 0.00 0.00 0.00 30 1012.4
20260901230529 83 360 1.0 12.0 0.00 0.00 0.00 30 1012.3
20260901230031 83 360 1.0 7.0 0.00 0.00 0.00 30 1012.3
20260901225532 83 360 0.0 6.0 0.00 0.00 0.00 31 1012.3
20260901225054 83 360 0.0 13.0 0.00 0.00 0.00 31 1012.3
20260901224616 83 360 1.0 20.0 0.00 0.00 0.00 31 1012.4
20260901224035 84 360 2.0 20.0 0.00 0.00 0.00 30 1012.3
20260901223536 85 360 2.0 11.0 0.00 0.00 0.00 30 1012.3
20260901223117 84 360 2.0 11.0 0.00 0.00 0.00 30 1012.4
20260901222617 84 360 6.0 11.0 0.00 0.00 0.00 30 1012.4
20260901222036 83 360 3.0 7.0 0.00 0.00 0.00 31 1012.5
20260901221537 83 360 1.0 14.0 0.00 0.00 0.00 31 1012.5
20260901221039 83 360 4.0 16.0 0.00 0.00 0.00 31 1012.4
20260901220538 83 360 0.0 22.0 0.00 0.00 0.00 32 1012.5
20260901220039 84 360 3.0 22.0 0.00 0.00 0.00 30 1012.5
20260901215540 85 360 0.0 11.0 0.00 0.00 0.00 29 1012.5
20260901215041 85 360 3.0 20.0 0.00 0.00 0.00 28 1012.6
20260901214542 84 360 12.0 20.0 0.00 0.00 0.00 28 1012.7
20260901214105 84 360 2.0 9.0 0.00 0.00 0.00 30 1012.7
20260901212602 83 360 0.0 19.0 0.00 0.00 0.00 30 1013.0
20260901211542 84 360 12.0 22.0 0.00 0.00 0.00 31 1013.2
20260901211043 83 360 0.0 13.0 0.00 0.00 0.00 31 1013.2
20260901210543 83 360 0.0 19.0 0.00 0.00 0.00 31 1013.4
20260901210023 83 360 5.0 22.0 0.00 0.00 0.00 32 1013.3
20260901205524 83 360 16.0 28.0 0.00 0.00 0.00 31 1013.3
20260901205046 83 360 5.0 28.0 0.00 0.00 0.00 31 1013.2
20260901204526 83 360 1.0 15.0 0.00 0.00 0.00 31 1013.4
20260901204049 83 360 0.0 11.0 0.00 0.00 0.00 33 1013.4
20260901203049 82 360 0.0 14.0 0.00 0.00 0.00 31 1013.5
20260901202023 82 360 6.0 22.0 0.00 0.00 0.00 32 1013.6
20260901201528 82 360 2.0 22.0 0.00 0.00 0.00 32 1013.7
20260901201050 82 360 10.0 19.0 0.00 0.00 0.00 32 1013.7
20260901200549 82 360 5.0 15.0 0.00 0.00 0.00 32 1013.7
20260901195524 81 360 3.0 19.0 0.00 0.00 0.00 33 1013.8
20260901195045 82 360 1.0 19.0 0.00 0.00 0.00 32 1014.0
20260901194529 82 360 6.0 18.0 0.00 0.00 0.00 32 1014.0
20260901194031 81 360 2.0 23.0 0.00 0.00 0.00 32 1013.9
20260901193531 81 360 12.0 23.0 0.00 0.00 0.00 32 1013.9
20260901193033 81 360 3.0 18.0 0.00 0.00 0.00 33 1013.9
20260901192614 81 360 4.0 15.0 0.00 0.00 0.00 34 1014.0
20260901192115 80 360 0.0 9.0 0.00 0.00 0.00 36 1014.1
20260901191533 79 360 0.0 9.0 0.00 0.00 0.00 37 1014.2
20260901191056 79 360 0.0 15.0 0.00 0.00 0.00 36 1014.3
20260901190056 79 360 6.0 14.0 0.00 0.00 0.00 36 1014.3
20260901185557 80 360 0.0 4.0 0.00 0.00 0.00 37 1014.5
20260901185037 80 360 0.0 4.0 0.00 0.00 0.00 37 1014.5
20260901184558 80 360 0.0 4.0 0.00 0.00 0.00 37 1014.5
20260901184040 81 360 0.0 7.0 0.00 0.00 0.00 37 1013.7
20260901183617 80 360 0.0 7.0 0.00 0.00 0.00 37 1013.8
20260901183036 80 360 0.0 0.0 0.00 0.00 0.00 37 1014.0
20260901182539 80 360 0.0 10.0 0.00 0.00 0.00 37 1014.0
20260901182101 80 360 0.0 17.0 0.00 0.00 0.00 38 1014.1
20260901181541 80 360 6.0 17.0 0.00 0.00 0.00 38 1014.1
20260901181043 80 360 0.0 7.0 0.00 0.00 0.00 37 1014.1
20260901180544 79 360 0.0 7.0 0.00 0.00 0.00 38 1014.1
20260901180024 79 360 0.0 0.0 0.00 0.00 0.00 38 1014.2
20260901175525 78 360 0.0 0.0 0.00 0.00 0.00 40 1014.3
20260901175028 78 360 0.0 0.0 0.00 0.00 0.00 38 1014.3
20260901174529 78 360 0.0 5.0 0.00 0.00 0.00 39 1014.4
20260901174050 78 360 0.0 9.0 0.00 0.00 0.00 40 1014.5
20260901173550 77 360 2.0 15.0 0.00 0.00 0.00 42 1014.6
20260901172550 76 360 10.0 15.0 0.00 0.00 0.00 41 1014.7
20260901172052 76 360 3.0 14.0 0.00 0.00 0.00 43 1014.8
20260901171532 76 360 3.0 12.0 0.00 0.00 0.00 42 1014.8
20260901171035 76 360 2.0 18.0 0.00 0.00 0.00 43 1014.9
20260901170616 76 360 0.0 18.0 0.00 0.00 0.00 44 1014.9
20260901170034 77 360 4.0 24.0 0.00 0.00 0.00 43 1014.9
20260901165537 78 360 16.0 24.0 0.00 0.00 0.00 42 1014.9
20260901165059 77 360 1.0 15.0 0.00 0.00 0.00 41 1014.9
20260901164539 77 360 4.0 15.0 0.00 0.00 0.00 42 1015.0
20260901164122 77 360 0.0 13.0 0.00 0.00 0.00 44 1014.9
20260901163523 76 360 2.0 12.0 0.00 0.00 0.00 44 1014.9
20260901163024 76 360 4.0 15.0 0.00 0.00 0.00 45 1014.9
20260901162526 76 360 3.0 15.0 0.00 0.00 0.00 44 1015.0
20260901162047 76 360 0.0 12.0 0.00 0.00 0.00 44 1015.0
20260901161548 76 360 0.0 12.0 0.00 0.00 0.00 45 1015.1
20260901161050 76 360 0.0 3.0 0.00 0.00 0.00 45 1015.0
20260901160550 75 360 0.0 3.0 0.00 0.00 0.00 45 1015.0
20260901160050 75 360 0.0 11.0 0.00 0.00 0.00 44 1015.0
20260901155029 75 360 0.0 13.0 0.00 0.00 0.00 45 1015.2
20260901154551 75 360 2.0 13.0 0.00 0.00 0.00 46 1015.3
20260901154032 74 360 4.0 14.0 0.00 0.00 0.00 46 1015.2
20260901153612 74 360 4.0 21.0 0.00 0.00 0.00 46 1015.4
20260901153112 74 360 10.0 21.0 0.00 0.00 0.00 45 1015.4
20260901152531 75 360 3.0 16.0 0.00 0.00 0.00 43 1015.4
20260901152033 75 360 3.0 12.0 0.00 0.00 0.00 44 1015.4
20260901151615 75 360 7.0 19.0 0.00 0.00 0.00 43 1015.4
20260901151055 75 360 2.0 19.0 0.00 0.00 0.00 44 1015.4
20260901150534 74 360 1.0 18.0 0.00 0.00 0.00 45 1015.4
20260901150056 74 360 7.0 20.0 0.00 0.00 0.00 44 1015.4
20260901145536 74 360 8.0 20.0 0.00 0.00 0.00 44 1015.5
20260901145038 73 360 2.0 16.0 0.00 0.00 0.00 45 1015.6
20260901144620 73 360 5.0 16.0 0.00 0.00 0.00 45 1015.6
20260901144121 73 360 2.0 14.0 0.00 0.00 0.00 46 1015.6
20260901143539 72 360 3.0 16.0 0.00 0.00 0.00 46 1015.6
20260901143040 72 360 6.0 16.0 0.00 0.00 0.00 46 1015.7
20260901142622 72 360 7.0 16.0 0.00 0.00 0.00 47 1015.8
20260901142101 71 360 3.0 19.0 0.00 0.00 0.00 47 1015.9
20260901141623 71 360 3.0 19.0 0.00 0.00 0.00 48 1015.9
20260901141044 70 360 1.0 10.0 0.00 0.00 0.00 49 1016.0
20260901140042 68 360 1.0 8.0 0.00 0.00 0.00 52 1015.3
20260901135523 67 360 0.0 20.0 0.00 0.00 0.00 53 1015.3
20260901135024 67 360 4.0 20.0 0.00 0.00 0.00 53 1015.3
20260901134546 67 360 1.0 14.0 0.00 0.00 0.00 53 1015.2
20260901133526 67 360 2.0 13.0 0.00 0.00 0.00 52 1015.0
20260901133047 67 360 5.0 13.0 0.00 0.00 0.00 52 1015.0
20260901132527 68 360 1.0 16.0 0.00 0.00 0.00 52 1015.0
20260901132028 68 360 6.0 17.0 0.00 0.00 0.00 51 1014.9
20260901131529 68 360 7.0 26.0 0.00 0.00 0.00 52 1014.7
20260901131111 68 360 8.0 26.0 0.00 0.00 0.00 52 1014.9
20260901130610 68 360 5.0 26.0 0.00 0.00 0.00 52 1014.9
20260901130049 68 360 8.0 21.0 0.00 0.00 0.00 52 1015.0
20260901125529 68 360 5.0 21.0 0.00 0.00 0.00 52 1015.0
20260901125030 68 360 9.0 20.0 0.00 0.00 0.00 52 1014.8
20260901124551 68 360 7.0 19.0 0.00 0.00 0.00 51 1014.8
20260901124052 68 360 9.0 22.0 0.00 0.00 0.00 51 1015.0
20260901123530 68 360 8.0 22.0 0.00 0.00 0.00 51 1015.2
20260901123053 69 360 8.0 23.0 0.00 0.00 0.00 50 1015.1
20260901122553 69 360 11.0 23.0 0.00 0.00 0.00 50 1015.3
20260901122054 69 360 4.0 18.0 0.00 0.00 0.00 49 1015.1
20260901121534 69 360 6.0 19.0 0.00 0.00 0.00 49 1015.1
20260901121037 69 360 4.0 19.0 0.00 0.00 0.00 49 1015.0
20260901120618 69 360 5.0 18.0 0.00 0.00 0.00 49 1015.1
20260901120037 70 360 11.0 21.0 0.00 0.00 0.00 48 1015.2
20260901115559 70 360 10.0 21.0 0.00 0.00 0.00 48 1015.1
20260901115041 70 360 6.0 18.0 0.00 0.00 0.00 48 1015.0
20260901114525 71 360 6.0 21.0 0.00 0.00 0.00 47 1015.1
20260901114027 71 360 6.0 21.0 0.00 0.00 0.00 47 1014.9
20260901113547 71 360 2.0 18.0 0.00 0.00 0.00 47 1014.9
20260901112604 71 360 4.0 16.0 0.00 0.00 0.00 47 1014.9
20260901112028 71 360 4.0 16.0 0.00 0.00 0.00 47 1014.9
20260901111607 71 360 4.0 16.0 0.00 0.00 0.00 47 1014.9
20260901111030 71 360 6.0 20.0 0.00 0.00 0.00 47 1014.1
20260901110530 71 360 8.0 20.0 0.00 0.00 0.00 47 1013.9
20260901110032 71 360 9.0 25.0 0.00 0.00 0.00 47 1013.9
20260901105554 71 360 8.0 25.0 0.00 0.00 0.00 47 1013.8
20260901105033 71 360 6.0 22.0 0.00 0.00 0.00 47 1014.0
20260901104534 71 360 7.0 22.0 0.00 0.00 0.00 47 1014.1
20260901104036 71 360 5.0 19.0 0.00 0.00 0.00 47 1014.2
20260901103557 71 360 8.0 19.0 0.00 0.00 0.00 47 1014.4
20260901103118 71 360 3.0 28.0 0.00 0.00 0.00 47 1014.2
20260901102558 71 360 10.0 28.0 0.00 0.00 0.00 47 1014.3
20260901102038 71 360 6.0 20.0 0.00 0.00 0.00 47 1014.5
20260901101539 71 360 8.0 19.0 0.00 0.00 0.00 47 1014.4
20260901101101 71 360 8.0 19.0 0.00 0.00 0.00 47 1014.5
20260901100620 71 360 11.0 22.0 0.00 0.00 0.00 47 1014.6
20260901100039 72 360 8.0 22.0 0.00 0.00 0.00 47 1014.7